Rhinelander, WI

5:53 PM CDT on August 31, 2016 (GMT -0500)
Rhinelander-Oneida County

Weather History for KRHI - May, 2013

Change the Weather History Date:

Saturday, May 18, 2013

  Actual Average Record
Temperature  
Mean Temperature 61 °F 54 °F  
Max Temperature 73 °F 66 °F 87 °F (1911)
Min Temperature 48 °F 41 °F 21 °F (1918)
Degree Days  
Heating Degree Days 4 12  
Month to date heating degree days 286 257  
Since 1 July heating degree days 8897 8757  
Cooling Degree Days 0 0  
Month to date cooling degree days 0 0  
Year to date cooling degree days 0 1  
Growing Degree Days 10 (Base 50)    
Moisture  
Dew Point 51 °F    
Average Humidity 75    
Maximum Humidity 93    
Minimum Humidity 57    
Precipitation  
Precipitation 0.07 in 0.12 in 1.78 in (1918)
Month to date precipitation 1.32 1.96  
Year to date precipitation 10.75 8.15  
Snow  
Snow 0.00 in - T in (2015)
Month to date snowfall 0.2  
Since 1 July snowfall 83.8  
Snow Depth 0.00 in    
Sea Level Pressure  
Sea Level Pressure 30.05 in    
Wind  
Wind Speed 7 mph (SE)    
Max Wind Speed 15 mph    
Max Gust Speed 22 mph    
Visibility 10 miles    
Events Rain    
T = Trace of Precipitation, MM = Missing Value Source: NWS Daily Summary

Daily Weather History Graph

Daily Weather History Graph

Search for Another Location

Airport or City:

Trip Planner

Search our weather history database for the weather conditions in past years. The results will help you decide how hot, cold, wet, or windy it might be!

Date:

Astronomy

May. 18, 2013 Rise Set
Actual Time 5:23 AM CDT 8:26 PM CDT
Civil Twilight 4:48 AM CDT 9:01 PM CDT
Nautical Twilight 4:02 AM CDT 9:46 PM CDT
Astronomical Twilight 3:08 AM CDT 10:41 PM CDT
Moon 1:08 PM CDT (5/18) 1:37 AM CDT (5/18)
Length of Visible Light 16h 13m
Length of Day
15h 02m
First Quarter, 55% of the Moon is Illuminated
May 18
First Quarter
May 24
Full
May 31
Last Quarter
Jun 8
New
Jun 16
First Quarter

Hourly Weather History & Observations

Time (CDT) Temp. Dew Point Humidity Pressure Visibility Wind Dir Wind Speed Gust Speed Precip Events Conditions
12:42 AM 51.8 °F 48.2 °F 88% 30.12 in 10.0 mi ESE 6.9 mph - 0.00 in   Overcast
12:53 AM 51.1 °F 48.0 °F 89% 30.13 in 10.0 mi SE 5.8 mph - 0.00 in   Overcast
1:28 AM 50.0 °F 44.6 °F 82% 30.12 in 7.0 mi ESE 10.4 mph - 0.00 in Rain Light Rain
1:53 AM 50.0 °F 45.0 °F 83% 30.13 in 10.0 mi ESE 4.6 mph - 0.00 in   Overcast
2:53 AM 48.0 °F 46.9 °F 96% 30.10 in 10.0 mi East 10.4 mph - 0.05 in Rain Light Rain
3:53 AM 48.9 °F 46.9 °F 93% 30.10 in 10.0 mi ESE 6.9 mph - 0.00 in   Overcast
4:53 AM 48.9 °F 46.0 °F 90% 30.09 in 10.0 mi ESE 5.8 mph - N/A   Overcast
5:53 AM 48.9 °F 46.0 °F 90% 30.09 in 10.0 mi East 5.8 mph - N/A   Overcast
6:53 AM 50.0 °F 46.9 °F 89% 30.11 in 10.0 mi East 5.8 mph - 0.00 in Rain Light Rain
7:53 AM 50.0 °F 46.9 °F 89% 30.10 in 6.0 mi ESE 8.1 mph - 0.02 in Rain Light Rain
8:53 AM 51.1 °F 48.0 °F 89% 30.09 in 10.0 mi ESE 8.1 mph - 0.00 in   Partly Cloudy
9:32 AM 53.6 °F 48.2 °F 82% 30.08 in 10.0 mi SE 6.9 mph - N/A   Overcast
9:53 AM 53.1 °F 48.9 °F 86% 30.09 in 10.0 mi SE 9.2 mph - N/A   Overcast
10:03 AM 53.6 °F 48.2 °F 82% 30.07 in 10.0 mi SE 6.9 mph - N/A   Overcast
10:53 AM 57.9 °F 50.0 °F 75% 30.08 in 10.0 mi SSE 5.8 mph - N/A   Mostly Cloudy
11:53 AM 60.1 °F 50.0 °F 69% 30.07 in 10.0 mi SSE 4.6 mph - N/A   Mostly Cloudy
12:21 PM 62.6 °F 51.8 °F 68% 30.05 in 10.0 mi Variable 5.8 mph - N/A   Mostly Cloudy
12:53 PM 63.0 °F 51.1 °F 65% 30.05 in 10.0 mi South 5.8 mph - N/A   Scattered Clouds
2:53 PM 69.1 °F 54.0 °F 58% 29.99 in 10.0 mi South 11.5 mph 20.7 mph N/A   Clear
3:53 PM 70.0 °F 55.9 °F 61% 29.95 in 10.0 mi SSE 10.4 mph 21.9 mph N/A   Scattered Clouds
4:53 PM 71.1 °F 55.9 °F 59% 29.97 in 10.0 mi SSW 11.5 mph 19.6 mph N/A   Partly Cloudy
5:53 PM 71.1 °F 55.9 °F 59% 29.97 in 10.0 mi South 8.1 mph 18.4 mph N/A   Overcast
6:53 PM 70.0 °F 57.0 °F 63% 29.97 in 10.0 mi SSE 8.1 mph - N/A   Mostly Cloudy
7:53 PM 68.0 °F 57.0 °F 68% 29.97 in 10.0 mi South 5.8 mph - N/A   Clear
8:53 PM 66.0 °F 57.9 °F 75% 29.97 in 10.0 mi SSE 4.6 mph - N/A   Clear
9:53 PM 64.0 °F 57.9 °F 80% 29.97 in 10.0 mi SE 4.6 mph - N/A   Mostly Cloudy
10:53 PM 62.1 °F 57.0 °F 84% 29.96 in 8.0 mi ESE 3.5 mph - N/A   Scattered Clouds